Regional Weather Roundup
Issued by NWS Cleveland, OH

Home | Current Version | Previous Version | Graphics & Text | Print | Product List | Glossary On
Versions: 1 2 3 4 5 6 7 8 9 10 11 12 13 14 15 16 17 18 19 20 21 22 23 24 25 26 27 28 29 30 31 32 33 34 35 36 37 38 39 40 41 42 43 44 45 46 47 48 49 50
000
ASUS41 KCLE 260500
RWRCLE
OHIO REGIONAL WEATHER ROUNDUP
NATIONAL WEATHER SERVICE WILMINGTON, OH
100 AM EDT SUN OCT 26 2014

NOTE: "FAIR" INDICATES FEW OR NO CLOUDS BELOW 12,000 FEET WITH NO
SIGNIFICANT WEATHER AND/OR OBSTRUCTIONS TO VISIBILITY.

OHZ001>008-015>018-024>027-034-035-043-044-260600-
   NORTHWEST OHIO

CITY           SKY/WX    TMP DP  RH WIND       PRES   REMARKS
DEFIANCE       CLEAR     51  34  52 NW6       29.89S
FINDLAY        CLEAR     47  35  63 W7        29.87S HAZE
TOLEDO EXPRESS CLEAR     50  33  52 W8        29.86S
TOLEDO METCALF CLEAR     48  33  56 W8        29.86S
LIMA           CLEAR     53  35  50 NW8       29.90R
$$

OHZ009>014-019>023-028>033-038-089-260600-
   NORTHEAST OHIO

CITY           SKY/WX    TMP DP  RH WIND       PRES   REMARKS
CLE-HOPKINS    CLEAR     55  36  48 W9        29.83S
CLE-LAKEFRONT  CLEAR     57  44  62 W18       29.79F
CUY CO. ARPT   NOT AVBL
LORAIN-ELYRIA  CLEAR     53  35  50 W9        29.83S
ASHTABULA      CLEAR     54  37  52 NW9       29.78R
AKRON-CANTON   CLEAR     52  31  44 NW8       29.82S
WOOSTER        NOT AVBL
MANSFIELD      CLEAR     51  33  50 W8        29.85F
YOUNGSTOWN     CLEAR     53  34  48 W7        29.79R
$$

OHZ042-051>053-060>062-070>072-077>081-260600-
  SOUTHWEST OHIO

CITY           SKY/WX    TMP DP  RH WIND       PRES   REMARKS
CINC-COVINGTON CLEAR     63  43  48 NW15      29.94R
CINC-LUNKEN    CLEAR     64  48  56 W6        29.94R
HAMILTON       CLEAR     50  46  86 W5        29.94S
DAYTON         NOT AVBL
WRIGHT-PAT AFB CLEAR     58  44  58 W8        29.92R
DAYTON GENERAL CLEAR     59  44  57 NW5       29.93R
WILMINGTON     CLEAR     59  43  55 NW12      29.92R
$$

OHZ036-037-039>041-045>050-054>059-063>069-073>076-082>088-260600-
  CENTRAL AND SOUTHEAST OHIO

CITY           SKY/WX    TMP DP  RH WIND       PRES   REMARKS
COLUMBUS       CLEAR     52  39  61 W7        29.87F
OSU AIRPORT    CLEAR     52  43  71 W5        29.88S
BOLTON FIELD   NOT AVBL
RICKENBACK AFB NOT AVBL
NEWARK         CLEAR     54  37  52 NW6       29.86F
MARION         CLEAR     52  34  50 W8        29.87F
LANCASTER      PTCLDY    43  41  93 CALM      29.88S
ZANESVILLE     CLEAR     55  34  45 W9        29.85F
NEW PHILLY     CLEAR     56  32  40 NW7       29.84S
$$



USA.gov is the U.S. government's official web portal to all federal, state and local government web resources and services.